Location: Unspecified
(0.0000°N, 0.0000°E)
Time: 23:54:34
(UTC+00:00)

Vanguard 1 Rocket - All Passes

Search period start: 19 November 2019 00:00
Search period end: 29 November 2019 00:00
Orbit: 651 x 4226 km, 34.3° (Epoch: 18 November)

Date Brightness Start Highest point End Pass type
(mag) Time Alt. Az. Time Alt. Az. Time Alt. Az.
19 Nov - 09:06:15 10° NNW 09:15:04 40° NE 09:31:07 10° ESE daylight
19 Nov - 11:30:18 10° WNW 11:43:33 72° SW 12:07:56 10° SE daylight
19 Nov - 14:00:48 10° W 14:18:21 34° SSW 14:40:53 10° SE daylight
19 Nov - 16:42:00 10° SW 16:59:35 21° S 17:14:54 10° SE daylight
19 Nov - 19:21:57 10° SW 19:39:00 27° SSE 19:49:53 10° ESE visible
19 Nov - 21:55:04 10° SW 22:10:38 63° SSE 22:18:22 10° ENE visible
20 Nov - 00:28:58 10° W 00:36:20 26° NW 00:41:09 10° NNE night (unlit)
20 Nov - 07:57:27 10° N 08:03:18 19° NE 08:11:57 10° E daylight
20 Nov - 10:19:08 10° NW 10:29:59 81° NE 10:51:39 10° SE daylight
20 Nov - 12:46:23 10° W 13:01:49 44° SSW 13:25:39 10° SE daylight
20 Nov - 15:22:50 10° WSW 15:40:42 24° SSW 15:59:12 10° SE daylight
20 Nov - 18:04:54 10° SW 18:22:36 23° S 18:35:29 10° ESE visible
20 Nov - 20:39:47 10° SW 20:57:29 44° SSE 21:06:56 10° E visible
20 Nov - 23:13:01 10° WSW 23:25:25 57° NW 23:31:51 10° NE visible
21 Nov - 09:08:51 10° NNW 09:17:37 51° NE 09:34:36 10° ESE daylight
21 Nov - 11:33:40 10° WNW 11:46:37 59° SSW 12:10:05 10° SE daylight
21 Nov - 14:05:35 10° WSW 14:22:26 29° SSW 14:43:31 10° SE daylight
21 Nov - 16:46:42 10° SW 17:04:36 22° S 17:19:44 10° SE daylight
21 Nov - 19:24:04 10° SW 19:43:01 33° SSE 19:54:26 10° E visible
21 Nov - 21:57:24 10° SW 22:13:45 83° SE 22:21:39 10° ENE visible
22 Nov - 00:33:28 10° W 00:39:05 17° NW 00:43:11 10° N night (unlit)
22 Nov - 07:59:32 10° N 08:06:03 26° NE 08:16:41 10° E daylight
22 Nov - 10:22:11 10° WNW 10:32:46 82° SW 10:54:05 10° SE daylight
22 Nov - 12:50:33 10° W 13:05:28 36° SSW 13:27:51 10° SE daylight
22 Nov - 15:28:09 10° SW 15:45:36 22° S 16:03:12 10° SE daylight
22 Nov - 18:07:43 10° SW 18:27:03 27° SSE 18:40:30 10° ESE visible
22 Nov - 20:41:48 10° SW 21:00:55 56° SSE 21:10:37 10° ENE visible
22 Nov - 23:16:19 10° WSW 23:28:06 41° NW 23:34:34 10° NNE visible
23 Nov - 09:11:36 10° NW 09:20:13 66° NE 09:37:40 10° ESE daylight
23 Nov - 11:37:20 10° W 11:49:56 48° SSW 12:12:08 10° SE daylight
23 Nov - 14:10:40 10° WSW 14:26:53 25° SSW 14:46:33 10° SE daylight
23 Nov - 16:50:40 10° SW 17:09:29 23° S 17:24:54 10° SE daylight
23 Nov - 19:26:05 10° SW 19:46:46 41° SSE 19:58:36 10° E visible
23 Nov - 21:59:59 10° WSW 22:16:37 76° NW 22:24:43 10° NE visible
24 Nov - 00:39:21 10° WNW 00:41:57 11° NW 00:44:11 10° NNW night (unlit)
24 Nov - 08:01:54 10° NNW 08:08:41 36° NE 08:20:43 10° ESE daylight
24 Nov - 10:25:27 10° WNW 10:35:48 65° SSW 10:56:20 10° SE daylight
24 Nov - 12:55:04 10° WSW 13:09:26 30° SSW 13:30:11 10° SE daylight
24 Nov - 15:33:07 10° SW 15:50:39 22° S 16:07:50 10° SE daylight
24 Nov - 18:10:10 10° SW 18:31:12 32° SSE 18:45:13 10° ESE visible
24 Nov - 20:43:57 10° SW 21:04:05 72° SE 21:14:03 10° ENE visible
24 Nov - 23:20:06 10° W 23:30:44 30° NW 23:37:03 10° NNE visible
25 Nov - 06:53:40 10° N 06:57:31 15° NE 07:02:35 10° ENE daylight
25 Nov - 09:14:34 10° NW 09:22:59 85° NE 09:40:24 10° SE daylight
25 Nov - 11:41:18 10° W 11:53:31 38° SSW 12:14:10 10° SE daylight
25 Nov - 14:15:54 10° SW 14:31:39 23° S 14:50:09 10° SE daylight
25 Nov - 16:53:58 10° SW 17:14:07 26° SSE 17:30:04 10° ESE daylight
25 Nov - 19:28:07 10° SW 19:50:15 52° SSE 20:02:26 10° ENE visible
25 Nov - 22:02:53 10° WSW 22:19:19 58° NW 22:27:34 10° NE visible
26 Nov - 08:04:30 10° NNW 08:11:18 49° NE 08:24:14 10° ESE daylight
26 Nov - 10:28:58 10° WNW 10:39:04 51° SSW 10:58:25 10° SE daylight
26 Nov - 12:59:56 10° WSW 13:13:43 26° SSW 13:32:49 10° SE daylight
26 Nov - 15:37:29 10° SW 15:55:39 23° S 16:12:57 10° SE daylight
26 Nov - 18:12:24 10° SW 18:35:03 39° SSE 18:49:35 10° E visible
26 Nov - 20:46:18 10° SW 21:07:01 90° SSE 21:17:13 10° NE visible
26 Nov - 23:24:29 10° W 23:33:25 22° NW 23:39:15 10° N visible
27 Nov - 06:55:28 10° N 07:00:18 22° NE 07:07:30 10° E daylight
27 Nov - 09:17:44 10° WNW 09:25:57 74° SW 09:42:51 10° SE daylight
27 Nov - 11:45:38 10° WSW 11:57:22 31° SSW 12:16:15 10° SE daylight
27 Nov - 14:20:59 10° SW 14:36:37 21° S 14:54:26 10° SE daylight
27 Nov - 16:56:47 10° SW 17:18:25 31° SSE 17:35:02 10° ESE daylight
27 Nov - 19:30:11 10° SW 19:53:30 64° SSE 20:05:58 10° ENE visible
27 Nov - 22:06:11 10° WSW 22:21:54 44° NW 22:30:16 10° NNE visible
28 Nov - 08:07:19 10° NW 08:14:02 68° NE 08:27:19 10° ESE daylight
28 Nov - 10:32:48 10° W 10:42:35 40° SSW 11:00:24 10° SE daylight
28 Nov - 13:05:03 10° SW 13:18:17 22° S 13:35:55 10° SE daylight
28 Nov - 15:41:12 10° SW 16:00:27 25° SSE 16:18:18 10° ESE daylight
28 Nov - 18:14:32 10° SW 18:38:36 48° SSE 18:53:35 10° E visible
28 Nov - 20:48:53 10° WSW 21:09:45 73° NW 21:20:12 10° NE visible
28 Nov - 23:29:43 10° WNW 23:36:14 16° NW 23:41:03 10° N visible
